| time (UTC) | temp C | wind direction | speed KPH | gust KPH | rain 1hr cm | rain 24hr cm | rain mn cm | humidity % | barometer mb |
| 20260831081538 | 27 | 154 | 27.4 | 41.8 | 0.00 | 0.00 | 0.00 | 46 | 1016.8 |
| 20260831080558 | 27 | 159 | 25.7 | 45.1 | 0.00 | 0.00 | 0.00 | 47 | 1016.8 |
| 20260831075517 | 27 | 108 | 25.7 | 43.5 | 0.00 | 0.00 | 0.00 | 49 | 1016.8 |
| 20260831074522 | 26 | 126 | 25.7 | 45.1 | 0.00 | 0.00 | 0.00 | 50 | 1016.8 |
| 20260831073522 | 26 | 115 | 19.3 | 32.2 | 0.00 | 0.00 | 0.00 | 51 | 1016.8 |
| 20260831072542 | 26 | 113 | 19.3 | 33.8 | 0.00 | 0.00 | 0.00 | 51 | 1016.9 |
| 20260831071522 | 25 | 117 | 27.4 | 41.8 | 0.00 | 0.00 | 0.00 | 51 | 1016.9 |
| 20260831070521 | 25 | 121 | 27.4 | 53.1 | 0.00 | 0.00 | 0.00 | 51 | 1016.8 |
| 20260831065521 | 25 | 111 | 25.7 | 41.8 | 0.00 | 0.00 | 0.00 | 53 | 1016.8 |
| 20260831064518 | 24 | 120 | 24.1 | 35.4 | 0.00 | 0.00 | 0.00 | 54 | 1016.8 |
| 20260831063517 | 24 | 112 | 20.9 | 38.6 | 0.00 | 0.00 | 0.00 | 55 | 1016.9 |
| 20260831062539 | 23 | 117 | 25.7 | 49.9 | 0.00 | 0.00 | 0.00 | 55 | 1016.9 |
| 20260831061520 | 23 | 118 | 17.7 | 30.6 | 0.00 | 0.00 | 0.00 | 57 | 1016.9 |
| 20260831060542 | 23 | 121 | 17.7 | 41.8 | 0.00 | 0.00 | 0.00 | 59 | 1017.0 |
| 20260831055522 | 22 | 113 | 16.1 | 24.1 | 0.00 | 0.00 | 0.00 | 62 | 1017.0 |
| 20260831054518 | 21 | 85 | 20.9 | 48.3 | 0.00 | 0.00 | 0.00 | 63 | 1017.0 |
| 20260831053520 | 21 | 108 | 19.3 | 29.0 | 0.00 | 0.00 | 0.00 | 64 | 1017.0 |
| 20260831052518 | 21 | 119 | 6.4 | 16.1 | 0.00 | 0.00 | 0.00 | 66 | 1017.0 |
| 20260831051518 | 21 | 106 | 9.7 | 19.3 | 0.00 | 0.00 | 0.00 | 67 | 1017.0 |
| 20260831050521 | 20 | 113 | 11.3 | 17.7 | 0.00 | 0.00 | 0.00 | 66 | 1017.0 |
| 20260831045518 | 20 | 19 | 3.2 | 11.3 | 0.00 | 0.00 | 0.00 | 67 | 1017.0 |
| 20260831044522 | 20 | 188 | 8.0 | 14.5 | 0.00 | 0.00 | 0.00 | 65 | 1017.0 |
| 20260831043540 | 20 | 146 | 9.7 | 14.5 | 0.00 | 0.00 | 0.00 | 64 | 1016.9 |
| 20260831042521 | 20 | 135 | 11.3 | 17.7 | 0.00 | 0.00 | 0.00 | 63 | 1016.8 |
| 20260831041520 | 20 | 110 | 4.8 | 12.9 | 0.00 | 0.00 | 0.00 | 64 | 1016.8 |
| 20260831040518 | 20 | 190 | 8.0 | 16.1 | 0.00 | 0.00 | 0.00 | 64 | 1016.8 |
| 20260831035517 | 19 | 118 | 12.9 | 17.7 | 0.00 | 0.00 | 0.00 | 63 | 1016.8 |
| 20260831034521 | 20 | 125 | 11.3 | 17.7 | 0.00 | 0.00 | 0.00 | 62 | 1016.8 |
| 20260831033521 | 20 | 116 | 20.9 | 29.0 | 0.00 | 0.00 | 0.00 | 62 | 1016.8 |
| 20260831032521 | 20 | 106 | 19.3 | 27.4 | 0.00 | 0.00 | 0.00 | 62 | 1016.8 |
| 20260831030520 | 20 | 119 | 22.5 | 30.6 | 0.00 | 0.00 | 0.00 | 62 | 1016.7 |
| 20260831025516 | 20 | 95 | 14.5 | 20.9 | 0.00 | 0.00 | 0.00 | 62 | 1016.6 |
| 20260831024520 | 20 | 112 | 12.9 | 20.9 | 0.00 | 0.00 | 0.00 | 63 | 1016.7 |
| 20260831023518 | 20 | 113 | 9.7 | 17.7 | 0.00 | 0.00 | 0.00 | 63 | 1016.7 |
| 20260831022522 | 20 | 126 | 16.1 | 22.5 | 0.00 | 0.00 | 0.00 | 62 | 1016.6 |
| 20260831021522 | 20 | 126 | 14.5 | 29.0 | 0.00 | 0.00 | 0.00 | 63 | 1016.8 |
| 20260831020521 | 20 | 80 | 11.3 | 19.3 | 0.00 | 0.00 | 0.00 | 64 | 1016.8 |
| 20260831015517 | 20 | 119 | 8.0 | 14.5 | 0.00 | 0.00 | 0.00 | 63 | 1016.8 |
| 20260831014541 | 20 | 155 | 4.8 | 19.3 | 0.00 | 0.00 | 0.00 | 63 | 1016.9 |
| 20260831013517 | 20 | 136 | 9.7 | 17.7 | 0.00 | 0.03 | 0.00 | 63 | 1016.9 |
| 20260831012521 | 20 | 128 | 19.3 | 32.2 | 0.00 | 0.03 | 0.00 | 62 | 1017.0 |
| 20260831011517 | 20 | 54 | 14.5 | 22.5 | 0.00 | 0.03 | 0.00 | 63 | 1017.0 |
| 20260831010521 | 20 | 118 | 12.9 | 22.5 | 0.00 | 0.03 | 0.00 | 63 | 1017.0 |
| 20260831005537 | 20 | 108 | 12.9 | 22.5 | 0.00 | 0.03 | 0.00 | 63 | 1016.9 |
| 20260831004521 | 21 | 128 | 14.5 | 19.3 | 0.00 | 0.03 | 0.00 | 62 | 1017.0 |
| 20260831003517 | 21 | 131 | 16.1 | 27.4 | 0.00 | 0.03 | 0.00 | 63 | 1017.0 |
| 20260831002601 | 20 | 123 | 17.7 | 27.4 | 0.00 | 0.03 | 0.00 | 64 | 1017.1 |
| 20260831001517 | 20 | 117 | 14.5 | 20.9 | 0.00 | 0.03 | 0.00 | 64 | 1017.1 |
| 20260831000521 | 21 | 117 | 16.1 | 20.9 | 0.00 | 0.03 | 0.00 | 63 | 1017.1 |
| 20260830235519 | 21 | 124 | 17.7 | 25.7 | 0.00 | 0.03 | 0.00 | 64 | 1017.0 |
| 20260830234537 | 21 | 113 | 16.1 | 25.7 | 0.00 | 0.03 | 0.00 | 64 | 1017.1 |
| 20260830233537 | 21 | 108 | 16.1 | 20.9 | 0.00 | 0.03 | 0.00 | 64 | 1017.1 |
| 20260830232541 | 21 | 116 | 19.3 | 25.7 | 0.00 | 0.03 | 0.00 | 64 | 1017.1 |
| 20260830231522 | 20 | 109 | 17.7 | 30.6 | 0.00 | 0.03 | 0.00 | 65 | 1017.1 |
| 20260830230522 | 21 | 110 | 22.5 | 56.3 | 0.00 | 0.03 | 0.00 | 65 | 1017.1 |
| 20260830225542 | 21 | 112 | 16.1 | 25.7 | 0.00 | 0.03 | 0.00 | 66 | 1017.1 |
| 20260830224520 | 21 | 108 | 22.5 | 27.4 | 0.00 | 0.03 | 0.00 | 66 | 1017.0 |
| 20260830223520 | 21 | 110 | 20.9 | 27.4 | 0.00 | 0.03 | 0.00 | 66 | 1017.1 |
| 20260830222518 | 21 | 118 | 11.3 | 17.7 | 0.00 | 0.03 | 0.00 | 67 | 1017.2 |
| 20260830221556 | 21 | 108 | 17.7 | 30.6 | 0.00 | 0.03 | 0.00 | 67 | 1017.2 |
| 20260830220518 | 21 | 103 | 16.1 | 22.5 | 0.00 | 0.03 | 0.00 | 66 | 1017.1 |
| 20260830215516 | 21 | 106 | 20.9 | 30.6 | 0.00 | 0.03 | 0.00 | 66 | 1017.1 |
| 20260830214540 | 21 | 106 | 12.9 | 19.3 | 0.00 | 0.03 | 0.00 | 66 | 1017.1 |
| 20260830213536 | 21 | 127 | 4.8 | 14.5 | 0.00 | 0.03 | 0.00 | 65 | 1017.1 |
| 20260830212522 | 21 | 129 | 9.7 | 24.1 | 0.00 | 0.03 | 0.00 | 64 | 1017.0 |
| 20260830211522 | 22 | 108 | 8.0 | 14.5 | 0.00 | 0.03 | 0.00 | 64 | 1016.9 |
| 20260830210520 | 22 | 112 | 16.1 | 19.3 | 0.00 | 0.03 | 0.00 | 62 | 1016.8 |
| 20260830205522 | 22 | 109 | 14.5 | 20.9 | 0.00 | 0.03 | 0.03 | 62 | 1016.7 |
| 20260830204521 | 22 | 104 | 19.3 | 27.4 | 0.00 | 0.03 | 0.03 | 61 | 1016.8 |
| 20260830203521 | 22 | 106 | 19.3 | 29.0 | 0.00 | 0.03 | 0.03 | 61 | 1016.8 |
| 20260830202521 | 22 | 108 | 14.5 | 17.7 | 0.00 | 0.03 | 0.03 | 61 | 1016.7 |
| 20260830201517 | 22 | 96 | 14.5 | 19.3 | 0.00 | 0.03 | 0.03 | 61 | 1016.7 |
| 20260830200521 | 22 | 104 | 11.3 | 14.5 | 0.00 | 0.03 | 0.03 | 62 | 1016.6 |
| 20260830195522 | 22 | 116 | 6.4 | 8.0 | 0.00 | 0.03 | 0.03 | 62 | 1016.5 |
| 20260830194519 | 22 | 110 | 0.0 | 6.4 | 0.00 | 0.03 | 0.03 | 62 | 1016.6 |
| 20260830193517 | 22 | 0.0 | 0.0 | 0.00 | 0.03 | 0.03 | 61 | 1016.5 | |
| 20260830192522 | 22 | 121 | 9.7 | 14.5 | 0.00 | 0.03 | 0.03 | 61 | 1016.5 |
| 20260830191521 | 23 | 126 | 6.4 | 11.3 | 0.00 | 0.03 | 0.03 | 61 | 1016.5 |
| 20260830190520 | 23 | 119 | 9.7 | 14.5 | 0.00 | 0.03 | 0.03 | 60 | 1016.5 |
| 20260830185520 | 23 | 112 | 14.5 | 20.9 | 0.00 | 0.03 | 0.03 | 59 | 1016.5 |
| 20260830184522 | 23 | 112 | 9.7 | 14.5 | 0.00 | 0.03 | 0.03 | 58 | 1016.5 |
| 20260830183517 | 24 | 128 | 11.3 | 22.5 | 0.00 | 0.03 | 0.03 | 57 | 1016.4 |
| 20260830182519 | 24 | 132 | 12.9 | 19.3 | 0.00 | 0.03 | 0.03 | 57 | 1016.3 |
| 20260830181520 | 24 | 121 | 16.1 | 24.1 | 0.00 | 0.03 | 0.03 | 57 | 1016.3 |
| 20260830180601 | 24 | 122 | 12.9 | 19.3 | 0.00 | 0.03 | 0.03 | 58 | 1016.2 |
| 20260830175520 | 24 | 121 | 11.3 | 16.1 | 0.00 | 0.03 | 0.03 | 58 | 1016.0 |
| 20260830174520 | 25 | 126 | 12.9 | 19.3 | 0.00 | 0.03 | 0.03 | 58 | 1016.1 |
| 20260830173521 | 25 | 120 | 11.3 | 14.5 | 0.00 | 0.03 | 0.03 | 59 | 1016.0 |
| 20260830172540 | 25 | 121 | 14.5 | 22.5 | 0.00 | 0.03 | 0.03 | 58 | 1015.8 |
| 20260830171521 | 25 | 125 | 12.9 | 17.7 | 0.00 | 0.03 | 0.03 | 58 | 1015.8 |
| 20260830170520 | 26 | 120 | 16.1 | 24.1 | 0.00 | 0.03 | 0.03 | 57 | 1015.7 |
| 20260830165540 | 26 | 110 | 17.7 | 27.4 | 0.00 | 0.03 | 0.03 | 56 | 1015.5 |
| 20260830164520 | 26 | 109 | 17.7 | 24.1 | 0.00 | 0.03 | 0.03 | 55 | 1015.5 |
| 20260830163520 | 26 | 103 | 16.1 | 24.1 | 0.00 | 0.03 | 0.03 | 55 | 1015.5 |
| 20260830162541 | 26 | 109 | 11.3 | 16.1 | 0.00 | 0.03 | 0.03 | 55 | 1015.4 |
| 20260830161519 | 27 | 117 | 9.7 | 19.3 | 0.00 | 0.03 | 0.03 | 54 | 1015.4 |
| 20260830160521 | 27 | 118 | 11.3 | 17.7 | 0.00 | 0.03 | 0.03 | 53 | 1015.4 |
| 20260830155520 | 27 | 110 | 9.7 | 14.5 | 0.00 | 0.03 | 0.03 | 53 | 1015.5 |
| 20260830154521 | 27 | 121 | 12.9 | 22.5 | 0.00 | 0.03 | 0.03 | 52 | 1015.5 |
| 20260830153520 | 27 | 128 | 16.1 | 24.1 | 0.00 | 0.03 | 0.03 | 52 | 1015.5 |
| 20260830152519 | 28 | 123 | 14.5 | 33.8 | 0.00 | 0.03 | 0.03 | 51 | 1015.5 |
| 20260830151540 | 28 | 123 | 11.3 | 19.3 | 0.00 | 0.03 | 0.03 | 49 | 1015.5 |
| 20260830150520 | 28 | 115 | 24.1 | 37.0 | 0.00 | 0.03 | 0.03 | 48 | 1015.5 |
| 20260830145520 | 28 | 122 | 20.9 | 37.0 | 0.00 | 0.03 | 0.03 | 48 | 1015.5 |
| 20260830144520 | 28 | 132 | 20.9 | 32.2 | 0.00 | 0.03 | 0.03 | 47 | 1015.4 |
| 20260830143520 | 29 | 125 | 22.5 | 37.0 | 0.00 | 0.03 | 0.03 | 46 | 1015.4 |
| 20260830142520 | 29 | 119 | 19.3 | 30.6 | 0.00 | 0.03 | 0.03 | 47 | 1015.4 |
| 20260830141521 | 30 | 137 | 20.9 | 32.2 | 0.00 | 0.03 | 0.03 | 46 | 1015.3 |
| 20260830140521 | 30 | 113 | 22.5 | 48.3 | 0.00 | 0.03 | 0.03 | 45 | 1015.4 |
| 20260830135520 | 30 | 127 | 16.1 | 35.4 | 0.00 | 0.03 | 0.03 | 46 | 1015.5 |
| 20260830134540 | 29 | 108 | 22.5 | 37.0 | 0.00 | 0.03 | 0.03 | 46 | 1015.6 |
| 20260830133519 | 29 | 127 | 19.3 | 37.0 | 0.00 | 0.03 | 0.03 | 45 | 1015.6 |
| 20260830132535 | 30 | 134 | 17.7 | 33.8 | 0.00 | 0.03 | 0.03 | 44 | 1015.6 |
| 20260830131518 | 30 | 152 | 16.1 | 29.0 | 0.00 | 0.03 | 0.03 | 43 | 1015.6 |
| 20260830130519 | 30 | 153 | 27.4 | 48.3 | 0.00 | 0.03 | 0.03 | 43 | 1015.7 |
| 20260830125519 | 30 | 129 | 29.0 | 45.1 | 0.00 | 0.03 | 0.03 | 43 | 1015.8 |
| 20260830124539 | 30 | 134 | 20.9 | 29.0 | 0.00 | 0.03 | 0.03 | 45 | 1015.8 |
| 20260830123516 | 30 | 124 | 33.8 | 54.7 | 0.00 | 0.03 | 0.03 | 44 | 1015.9 |
| 20260830122520 | 30 | 133 | 22.5 | 40.2 | 0.00 | 0.03 | 0.03 | 44 | 1016.1 |
| 20260830121540 | 29 | 149 | 20.9 | 30.6 | 0.00 | 0.03 | 0.03 | 47 | 1016.2 |
| 20260830120520 | 28 | 126 | 16.1 | 27.4 | 0.00 | 0.03 | 0.03 | 48 | 1016.2 |
| 20260830115520 | 28 | 133 | 16.1 | 32.2 | 0.00 | 0.03 | 0.03 | 49 | 1016.4 |
| 20260830114520 | 28 | 111 | 27.4 | 41.8 | 0.00 | 0.03 | 0.03 | 49 | 1016.5 |
| 20260830113520 | 28 | 152 | 16.1 | 27.4 | 0.00 | 0.03 | 0.03 | 52 | 1016.6 |
| 20260830112516 | 28 | 128 | 19.3 | 33.8 | 0.00 | 0.03 | 0.03 | 52 | 1016.7 |
| 20260830111600 | 28 | 122 | 29.0 | 41.8 | 0.00 | 0.03 | 0.03 | 51 | 1016.8 |
| 20260830110517 | 28 | 113 | 27.4 | 43.5 | 0.00 | 0.03 | 0.03 | 52 | 1016.9 |
| 20260830105541 | 28 | 156 | 22.5 | 48.3 | 0.00 | 0.03 | 0.03 | 53 | 1016.9 |
| 20260830104516 | 28 | 129 | 16.1 | 29.0 | 0.00 | 0.03 | 0.03 | 53 | 1017.1 |
| 20260830103539 | 28 | 112 | 20.9 | 35.4 | 0.00 | 0.03 | 0.03 | 53 | 1017.1 |
| 20260830102520 | 28 | 128 | 29.0 | 48.3 | 0.00 | 0.03 | 0.03 | 53 | 1017.2 |
| 20260830101538 | 28 | 111 | 27.4 | 46.7 | 0.00 | 0.03 | 0.03 | 53 | 1017.2 |
| 20260830100519 | 27 | 86 | 17.7 | 30.6 | 0.00 | 0.03 | 0.03 | 52 | 1017.2 |
| 20260830095537 | 27 | 185 | 25.7 | 45.1 | 0.00 | 0.03 | 0.03 | 52 | 1017.4 |
| 20260830094519 | 27 | 168 | 16.1 | 30.6 | 0.00 | 0.03 | 0.03 | 55 | 1017.4 |
| 20260830093519 | 27 | 196 | 16.1 | 24.1 | 0.00 | 0.03 | 0.03 | 55 | 1017.5 |
| 20260830092539 | 27 | 81 | 12.9 | 24.1 | 0.00 | 0.03 | 0.03 | 55 | 1017.5 |
| 20260830091539 | 27 | 128 | 12.9 | 30.6 | 0.00 | 0.03 | 0.03 | 57 | 1017.6 |
| 20260830090517 | 26 | 148 | 16.1 | 20.9 | 0.00 | 0.03 | 0.03 | 56 | 1017.7 |
| 20260830085518 | 26 | 158 | 16.1 | 27.4 | 0.00 | 0.03 | 0.03 | 57 | 1017.7 |
| 20260830084538 | 27 | 113 | 11.3 | 17.7 | 0.00 | 0.03 | 0.03 | 57 | 1017.7 |
| 20260830083600 | 26 | 83 | 12.9 | 33.8 | 0.00 | 0.03 | 0.03 | 60 | 1017.8 |
| 20260830082520 | 26 | 49 | 12.9 | 19.3 | 0.00 | 0.03 | 0.03 | 63 | 1017.8 |